Location: Newark
(35.7127°N, 139.7618°E)
Time: 16:22:02
(UTC+00:00)

Envisat - Visible Passes

Search period start: 06 May 2021 00:00
Search period end: 16 May 2021 00:00
Orbit: 764 x 766 km, 98.1° (Epoch: 05 May)

Date Brightness Start Highest point End Pass type
(mag) Time Alt. Az. Time Alt. Az. Time Alt. Az.
06 May 6.1 18:48:54 10° ENE 18:50:36 12° E 18:52:17 10° ESE visible
08 May 5.6 19:12:19 10° NE 19:16:12 22° E 19:20:04 10° SE visible
11 May 5.7 19:01:25 10° NE 19:04:40 17° E 19:07:53 10° SE visible
14 May 5.9 18:50:52 10° ENE 18:53:06 13° E 18:55:19 10° ESE visible
